Вернуться в каталог

COSMOS 1247 DEB

LostHEO
NORAD 12992·DEBRIS·🇷🇺 Russia

Запущен Feb 19, 1981 с Plesetsk Cosmodrome

Loading…

Ближайшие Пролёты (ближайшие 24 часа)

TLE

УстаревшееSource: Space-Track

Эпоха: Oct 27, 2025, 04:38 UTC

1 12992U 81016H   25300.19352463 -.00000854  00000-0  00000-0 0  9990
2 12992  68.7531  25.5004 6218454 348.9441   2.1450  2.02527185227065

Отслеживайте COSMOS 1247 DEB в реальном времени с AllMySat

Download on the App Store